Hourly Data Report for October 02, 2014

All times are specified in Local Standard Time (LST). Add 1 hour to adjust for Daylight Saving Time where and when it is observed.

OTTAWA INTL A
ONTARIO

45°19'00.000" N
75°40'00.000" W
114.90 m
6106001
71628
YOW

Download Data

Hourly Data (October 2014)
Hourly Data Report for October 2, 2014
Temp Definition
°C
Dew Point Temp Definition
°C
Rel Hum Definition
%
Wind Dir Definition
10's deg

Wind Spd Definition
km/h
Visibility Definition
km
Stn Press Definition
kPa
Hmdx Definition


Wind Chill Definition


Weather Definition


TIME
00:00 Legend Double Dagger 10.5 9.6 94 6 13 24.1 100.68     LegendNANA
01:00 Legend Double Dagger 10.3 9.5 95 7 16 24.1 100.73     Clear
02:00 Legend Double Dagger 10.0 9.2 95 8 17 24.1 100.72     LegendNANA
03:00 Legend Double Dagger 9.4 8.8 96 6 10 24.1 100.72     LegendNANA
04:00 Legend Double Dagger 8.6 8.2 97 5 8 24.1 100.75     Mostly Cloudy
05:00 Legend Double Dagger 9.2 8.6 96 6 7 24.1 100.78     LegendNANA
06:00 Legend Double Dagger 8.9 8.5 97 7 10 24.1 100.82     LegendNANA
07:00 Legend Double Dagger 9.8 8.7 93 9 13 24.1 100.84     Clear
08:00 Legend Double Dagger 11.3 9.6 89 9 13 24.1 100.86     LegendNANA
09:00 Legend Double Dagger 13.1 10.7 85 7 13 24.1 100.84     LegendNANA
10:00 Legend Double Dagger 14.9 11.1 78 7 8 24.1 100.81     Mostly Cloudy
11:00 Legend Double Dagger 16.3 11.5 73 36 1 24.1 100.79     LegendNANA
12:00 Legend Double Dagger 18.4 12.9 70 36 1 24.1 100.72     LegendNANA
13:00 Legend Double Dagger 19.6 12.5 63 5 8 24.1 100.64     Mostly Cloudy
14:00 Legend Double Dagger 19.8 12.2 61 10 8 24.1 100.57     LegendNANA
15:00 Legend Double Dagger 20.5 12.8 61 12 13 24.1 100.53     LegendNANA
16:00 Legend Double Dagger 20.2 12.3 60 8 3 24.1 100.57     Mainly Clear
17:00 Legend Double Dagger 18.8 12.4 66 5 8 24.1 100.59     LegendNANA
18:00 Legend Double Dagger 17.0 12.2 73 6 8 24.1 100.54     LegendNANA
19:00 Legend Double Dagger 15.8 11.6 76 8 15 24.1 100.56     Clear
20:00 Legend Double Dagger 14.4 11.2 81 9 14 24.1 100.56     LegendNANA
21:00 Legend Double Dagger 13.6 11.0 84 8 11 24.1 100.58     LegendNANA
22:00 Legend Double Dagger 13.6 10.8 83 8 21 24.1 100.54     Clear
23:00 Legend Double Dagger 12.8 10.4 85 9 22 24.1 100.48     LegendNANA

Notes on Data Quality.

Legend

  • E = Estimated
  • M = Missing
  • NA = Not Available
  • ‡ = Partner data that is not subject to review by the National Climate Archives
Date modified: